Change the Weather History Date:

Sunday, April 13, 2014

  Actual Average Record
Temperature  
Mean Temperature 88 °F -  
Max Temperature 101 °F - - ()
Min Temperature 75 °F - - ()
Cooling Degree Days 23    
Growing Degree Days 38 (Base 50)    
Moisture  
Dew Point 40 °F    
Average Humidity 17    
Maximum Humidity 29    
Minimum Humidity 7    
Precipitation  
Precipitation 0.00 in - - ()
Sea Level Pressure  
Sea Level Pressure 29.79 in    
Wind  
Wind Speed 4 mph ()    
Max Wind Speed 16 mph    
Max Gust Speed -    
Visibility 1.8 miles    
Events      
T = Trace of Precipitation, MM = Missing Value Source: Averaged Metar Reports

Daily Weather History Graph

Daily Weather History Graph

Search for Another Location

Airport or City:

Trip Planner

Search our weather history database for the weather conditions in past years. The results will help you decide how hot, cold, wet, or windy it might be!

Date:

Astronomy

Apr. 13, 2014 Rise Set
Actual Time 6:05 AM IST 6:49 PM IST
Civil Twilight 5:41 AM IST 7:13 PM IST
Nautical Twilight 5:13 AM IST 7:41 PM IST
Astronomical Twilight 4:45 AM IST 8:09 PM IST
Moon 5:09 PM IST (4/13) 4:37 AM IST (4/13)
Length of Visible Light 13h 31m
Length of Day
12h 44m
Waxing Gibbous, 95% of the Moon is Illuminated
Apr 13
Waxing Gibbous
Apr 15
Full
Apr 22
Last Quarter
Apr 29
New
May 7
First Quarter

Hourly Weather History & Observations

Time (IST) Temp. Dew Point Humidity Pressure Visibility Wind Dir Wind Speed Gust Speed Precip Events Conditions
12:00 AM 80.6 °F 41.0 °F 24% 29.80 in 1.2 mi Variable 3.5 mph - N/A   Haze
1:00 AM 80.6 °F 41.0 °F 24% 29.80 in 1.2 mi Calm Calm - N/A   Haze
2:00 AM 78.8 °F 35.6 °F 21% 29.77 in 1.2 mi Calm Calm - N/A   Haze
2:30 AM 79 °F 36 °F 12% 29.71 in 1 mi Calm Calm - -   Haze
3:30 AM 80.6 °F 32.0 °F 17% 29.77 in 1.6 mi Calm Calm - N/A   Haze
4:00 AM 80.6 °F 33.8 °F 18% 29.77 in 1.6 mi NW 3.5 mph - N/A   Haze
5:00 AM 80.6 °F 32.0 °F 17% 29.77 in 1.6 mi WNW 4.6 mph - N/A   Haze
5:30 AM 80 °F 33 °F 10% 29.71 in 1 mi WNW 5.8 mph - -   Haze
6:00 AM 80.6 °F 28.4 °F 15% 29.80 in 1.6 mi NW 4.6 mph - N/A   Haze
6:30 AM 80.6 °F 32.0 °F 17% 29.80 in 1.6 mi Variable 5.8 mph - N/A   Haze
7:00 AM 82.4 °F 35.6 °F 19% 29.80 in 1.6 mi NW 6.9 mph - N/A   Haze
8:30 AM 82 °F 49 °F 21% 29.77 in 2 mi Calm Calm - -   Haze
9:00 AM 86.0 °F 41.0 °F 20% 29.86 in 1.9 mi Calm Calm - N/A   Haze
10:00 AM 91.4 °F 41.0 °F 17% 29.89 in 2.5 mi Variable 2.3 mph - N/A   Haze
11:00 AM 93.2 °F 41.0 °F 16% 29.89 in 2.5 mi East 9.2 mph - N/A   Haze
11:30 AM 94 °F 45 °F 11% 29.74 in 2 mi ESE 6.9 mph - -   Haze
12:00 PM 95.0 °F 39.2 °F 14% 29.86 in 2.5 mi ENE 6.9 mph - N/A   Haze
1:00 PM 96.8 °F 39.2 °F 14% 29.83 in 2.5 mi SSE 5.8 mph - N/A   Haze
2:00 PM 100.4 °F 37.4 °F 11% 29.80 in 2.5 mi Variable 4.6 mph - N/A   Haze
2:30 PM 100 °F 41 °F 7% 29.69 in 2 mi South 5.8 mph - -   Haze
3:00 PM 96.8 °F 37.4 °F 13% 29.80 in 2.5 mi Variable 4.6 mph - N/A   Haze
4:00 PM 96.8 °F 37.4 °F 13% 29.77 in 2.5 mi Variable 2.3 mph - N/A   Haze
5:00 PM 96.8 °F 33.8 °F 11% 29.77 in 2.5 mi Variable 4.6 mph - N/A   Haze
5:30 PM 94 °F 46 °F 11% 29.68 in 1 mi NE 5.8 mph - -   Haze
7:00 PM 89.6 °F 44.6 °F 21% 29.80 in 1.9 mi East 9.2 mph - N/A   Haze
8:00 PM 87.8 °F 44.6 °F 22% 29.80 in 1.9 mi East 6.9 mph - N/A   Haze
8:30 PM 88 °F 45 °F 13% 29.71 in 1 mi East 2.3 mph - -   Haze
9:00 PM 89.6 °F 44.6 °F 21% 29.83 in 1.9 mi NE 13.8 mph - N/A   Haze
10:00 PM 86.0 °F 46.4 °F 25% 29.86 in 1.9 mi ENE 12.7 mph - N/A   Haze
11:00 PM 84.2 °F 48.2 °F 29% 29.86 in 1.9 mi East 16.1 mph - N/A   Haze
11:30 PM 84 °F 48 °F 19% 29.78 in 1 mi East 13.8 mph - -   Haze